FENGYUN 1C DEB

Satellite information

Favourite Embed

Satellite Type and Status

DEBRISIN ORBIT

Key statistics

Satellite FENGYUN 1C DEB at a glance.

Uptime

9496

Days in orbit

Revolutions

≈ 14.2

Per day

Orbit

SSO

Sun Synchronous Orbit

Inclination

98.6

Latest

Satellite identification and parameters

Extended collection of information and parameters for FENGYUN 1C DEB.

Object identification

Identified? True

Debris? True

Object name: FENGYUN 1C DEB

International designator: 1999-025RJ

Object number (NORAD): 30105

Object ID (CCSDS): 30105

Country: PEOPLES REPUBLIC OF CHINA (PRC)

Current information (Y/N): Y

RCS size: SMALL

Orbital parameters

Period: 101.343 minutes

Inclination: 98.5759 deg

SMA: 7200.387 km

Apoapsis: 966.002 km

Periapsis: 678.503 km

RAAN: 120.1863 deg

Eccentricy: 0.0199641

Argument of periapsis: 347.9257 deg

Mean anomaly: 11.7172 deg

Mean motion: 14.20917811 rev/day

Mean motion (dot): 0.00001607 rev/day2

B* drag term: 0.00062453 1/REarth

Two-line elements (TLE)

Creation date: May 9, 2025, 2:46 a.m.

Reference frame: TEME

Reference center: EARTH

Epoch: May 8, 2025, 4:44 a.m. UTC

TLE line 0: 0 FENGYUN 1C DEB

TLE line 1: 1 30105U 99025RJ 25128.19734119 .00001607 00000-0 62453-3 0 9994

TLE line 2: 2 30105 98.5759 120.1863 0199641 347.9257 11.7172 14.20917811946587

Live tracking on map

Real-time ground track for satellite FENGYUN 1C DEB.

In-orbit conjunctions

A list of the most updated potential collisions computed for object FENGYUN 1C DEB.

Target Orbit TCA Probability of collision Miss distance Type
CZ-4 DEB SSO 2024-08-28 20:12:28 0.000226589 150.0 (m) DEBRIS

Associated space launch

Chinese polar orbiting meteorological satellite

FENGYUN 1C DEB was lifted into orbit during the mission ‘Long March 4B | Feng Yun 1C’, on board a Long March 4B space rocket.

The launch took place on May 10, 1999, 1:33 a.m. from Launch Complex 7.

For more information about the launch, click the button.

Launch to space Long March 4B | Feng Yun 1C
Long March 4B | Feng Yun 1C

Agency: N/A

Status: Launch Successful

Launch date: May 10, 1999, 1:33 a.m. UTC

Rocket: Long March 4B

Launch pad: Launch Complex 7

Location: Taiyuan Satellite Launch Center, People's Republic of China

...

Latest news about this satellite

There are no fresh news available about this satellite. Check back as we update our databases every day.


Newsletter sign-up

Weekly statistics, charts and insights to help you stay on top of the space industry.